Regional Weather Roundup
Issued by NWS Sterling, VA

Home | Current Version | Previous Version | Graphics & Text | Print | Product List | Glossary On
Versions: 1 2 3 4 5 6 7 8 9 10 11 12 13 14 15 16 17 18 19 20 21 22 23 24 25 26 27 28 29 30 31 32 33 34 35 36 37 38 39 40 41 42 43 44 45 46 47 48 49 50
000
ASUS41 KLWX 301910
RWRLWX

REGIONAL WEATHER ROUNDUP
NATIONAL WEATHER SERVICE BALTIMORE MD/WASHINGTON DC
300 PM EDT WED JUL 30 2014

Note: "FAIR" indicates few or no clouds below 12,000 feet
with no significant weather and/or obstructions to visibility.
 TC=TEMPERATURE CELSIUS

 * =Non NWS site. Station does not report precipitation (e.g. rain,
    snow, etc.), thunder, or fog.

DCZ001-MDZ009-015-VAZ040>042-051-053>054-302000-
WASHINGTON METRO
  /KDAA//-FT BELVOIR

CITY           SKY/WX    TMP DP  RH WIND       PRES   REMARKS
WASHINGTON NAT MOSUNNY   79  52  38 S10       30.06F
DULLES         MOSUNNY   77  50  38 S10G17    30.06F
ANDREWS AFB    PTSUNNY   78  52  40 SW5       30.06S
QUANTICO       MOSUNNY   76  53  44 SE6       30.07F
COLLEGE PARK*  SUNNY     79  45  29 NW5       30.05S
LEESBURG*      MOSUNNY   77  54  44 SW6       30.07S
MANASSAS*      MOSUNNY   77  52  41 S5        30.07S
GAITHERSBURG*  MOSUNNY   75  52  43 CALM      30.10S

$$

MDZ006>007-011-014-302000-
BALTIMORE METRO

CITY           SKY/WX    TMP DP  RH WIND       PRES   REMARKS
BWI AIRPORT    MOSUNNY   80  48  32 NW3       30.04F
MD SCIENCE CTR   N/A     79  48  33 MISG      30.04F
MARTIN STATE   MOSUNNY   77  61  57 SE10      30.06F
ANNAPOLIS      PTSUNNY   75  56  51 SE8       30.05F
FORT MEADE*    SUNNY     77  50  38 CALM      30.07S

$$

MDZ012-015-019>023-302000-
MARYLAND EASTERN SHORE

CITY           SKY/WX    TMP DP  RH WIND       PRES   REMARKS
OCEAN CITY     MOSUNNY   75  58  55 SE9       30.06S
SALISBURY      MOSUNNY   81  51  35 W8        30.05S
BAY BRIDGE AP*   N/A     77  48  36 SW3       30.06S
CAMBRIDGE*     SUNNY     77  46  33 SW6       30.06S
EASTON*        MOSUNNY   77  52  41 W7        30.10F

$$

MDZ017>025-302000-
SOUTHERN MARYLAND

CITY           SKY/WX    TMP DP  RH WIND       PRES   REMARKS
PATUXENT RIVER MOSUNNY   79  46  31 VRB7      30.06S
ST INIGOES     SUNNY     77  50  38 NW9       30.06F
LEONARDTOWN*   MOSUNNY   77  46  33 W10       30.08S

$$

MDZ003>005-302000-
NORTH CENTRAL MARYLAND

CITY           SKY/WX    TMP DP  RH WIND       PRES   REMARKS
FREDERICK*     SUNNY     79  55  44 W3        30.08F
HAGERSTOWN APT SUNNY     75  50  41 S8        30.05F
WESTMINSTER*   SUNNY     75  54  46 SW7       30.07S

$$

MDZ501>502-302000-
WESTERN MARYLAND

CITY           SKY/WX    TMP DP  RH WIND       PRES   REMARKS
OAKLAND*       PTSUNNY   64  54  68 SW8       30.12S
CUMBERLAND*    SUNNY     79  54  41 CALM      30.08F

$$

VAZ025>031-302000-
SHENANDOAH VALLEY

CITY           SKY/WX    TMP DP  RH WIND       PRES   REMARKS
WINCHESTER*    MOSUNNY   77  52  41 W3        30.06S
STAUNTON*      PTSUNNY   74  49  41 CALM      30.11S

$$

WVZ021-048>050-054>055-302000-
EASTERN WEST VIRGINIA PANHANDLE

CITY           SKY/WX    TMP DP  RH WIND       PRES   REMARKS
MARTINSBURG    SUNNY     78  49  35 VRB3      30.06F
PETERSBURG*    CLOUDY    73  48  40 SW6       30.07S

$$

VAZ036>039-050-302000-
CENTRAL FOOTHILLS

CITY           SKY/WX    TMP DP  RH WIND       PRES   REMARKS
CHARLOTTESVILL MOSUNNY   77  53  43 VRB6      30.07F
ORANGE*        SUNNY     79  52  38 SW5       30.09S

$$

VAZ055>057-302000-
NORTH AND CENTRAL PIEDMONT

CITY           SKY/WX    TMP DP  RH WIND       PRES   REMARKS
FREDERICKSBRG* MOSUNNY   80  54  40 W6        30.06S
STAFFORD*      PTSUNNY   78  53  41 W5        30.11S

$$

NCZ024-NYZ072-PAZ021-071-VAZ022-071-302000-
OTHER REGIONAL OBSERVATIONS

CITY           SKY/WX    TMP DP  RH WIND       PRES   REMARKS
NEW YORK CITY  PTSUNNY   78  48  34 VRB5      30.03S
PHILADELPHIA   MOSUNNY   79  51  37 SW9       30.03S
PITTSBURGH     TSTM      67  60  78 S12       30.02F
ROANOKE        PTSUNNY   76  51  41 S6        30.10F
RICHMOND       MOSUNNY   80  51  36 NW8       30.07F
RALEIGH        PTSUNNY   78  62  57 SE8       30.06F

$$

ANZ530>537-302000-
MARINE OBSERVATIONS

STATION/POSITION TIME  TEMP    WIND        PRES
                       AIR SEA DIR/SP/G
                 (UTC) (F)     (DEG/KT/KT) (MB)
THOMAS PT LIGHT  1900   73 78  170/  9/ 10 1018.2F
BALT KEY BRIDGE  1900   74     130/  6/  9 1017.2S
COVE POINT       1900   74     360/  6/  8 1017.7F
LEWISETTA        1900   75 77   30/  5/  8 1017.8F
SOLOMONS ISLAND  1900      80                N/A
PINEY POINT      1900          350/  8/  9   N/A

$$




USA.gov is the U.S. government's official web portal to all federal, state and local government web resources and services.